Location: Bottom School (historical)
(37.9078°N, 89.3593°W)
Time: 19:45:24
(UTC+00:00)

SL-4 R/B - Pass Details

Date: 09 July 2022
Orbit: 425 x 653 km, 51.6° (Epoch: 16 August)

Event Time Altitude Azimuth Distance (km) Brightness Sun altitude
Rises 07:30:28 0° 314° (NW) 2,474 5.6 -26.3°
Reaches altitude 10° 07:34:19 10° 356° (N) 1,656 5.2 -26.0°
Maximum altitude 07:35:07 11° 8° (N) 1,636 5.4 -26.0°
Drops below altitude 10° 07:35:55 10° 21° (NNE) 1,682 5.5 -25.9°
Sets 07:40:00 0° 62° (ENE) 2,641 6.3 -25.6°
